Volver al catálogo

STARLINK-3812

ActivoComunicacionesVLEO
NORAD 52346·PAYLOAD·🇺🇸 United States

Lanzado Apr 29, 2022 desde Cape Canaveral Space Force Station

Loading…

Próximos Pases (próximas 24 horas)

TLE

ActualizadoSource: CelesTrak SupGP

Época: Sep 15, 2026, 01:47 UTC

1 52346C 22045R   26258.07479167 -.00034380  00000+0 -11057-2 0  2580
2 52346  53.1578  59.0370 0001111  83.5674 291.3127 15.31715026    19

Sigue STARLINK-3812 en tiempo real con AllMySat

Download on the App Store